Location: Colonia Mina de C?rbuni
(46.1667°N, 22.7167°E)
Time: 10:31:24
(UTC+00:00)

Cosmos 540 Rocket - Pass Details

Date: 04 February 2023
Orbit: 740 x 751 km, 74.1° (Epoch: 31 March)

Event Time Altitude Azimuth Distance (km) Brightness Sun altitude
Rises 16:07:54 0° 344° (NNW) 3,207 6.7 -5.7°
Reaches altitude 10° 16:10:27 10° 352° (N) 2,277 5.9 -6.1°
Maximum altitude 16:15:13 37° 60° (ENE) 1,155 4.0 -6.9°
Drops below altitude 10° 16:19:57 10° 128° (SE) 2,256 5.6 -7.7°
Sets 16:22:27 0° 136° (SE) 3,173 6.4 -8.1°
